Content
SEND FEEDBACK

Daily
Averages
Monthly
Summary
United States of America

AGANA, GUAM


Home > North America > United States > Guam
Elevation: 246 feet     Latitude: 13 29N     Longitude: 144 48E

WEATHER
 
SELECT A DAY
Number of Records: 209,106;   Date Range: 1/1/95 - 8/12/14
 
SHARE

PRINT THIS DATA

[ ← Previous Day ]
WEATHER ALMANAC - SEPTEMBER 18, 2013
[ Next Day → ]
[ °C ]   °F
Weather ElementAverageHighLow
Temperature81.4 °F86 °F (12:54 pm)75.2 °F (4:03 am)
Dewpoint77.3 °F80.6 °F (1:20 pm)75.2 °F (3:09 am)
Humidity87.4 %100 % (4:03 am)74 % (2:30 pm)
Barometer29.60 in29.64 in (8:54 am)29.54 in (3:54 pm)
Wind Speed10.7 mph17.3 mph (3:16 am)
Wind Gust25.3 mph (5:54 pm)
Weather ElementAverage
Visibility8.6 mi
Wind DirectionW (275.3 °)

Weather ElementTotal
Precipitation1.32 in
Cooling Degree Days15.6 (Base 65)
Growing Degree Days30.6 (Base 50)
Averaged from 47 records on September 18, 2013
WEATHER CONDITIONS BREAKOUT
WIND DIRECTION BREAKOUT
WEATHER BY HOUR - SEPTEMBER 18, 2013
[ °C ]   °F
Local TimeTemperatureDewpointHumidityBarometerVisibilityWind DirectionWind SpeedGust SpeedPrecipitationEventsConditions
1:54 AM79.0 °F75.9 °F90 %29.60 in10.0 miNorth (360°)4.6 mphPartly Cloudy
2:08 AM80.6 °F77.0 °F89 %29.62 in10.0 miNorth (10°)11.5 mphMostly Cloudy
2:35 AM80.6 °F77.0 °F89 %29.62 in10.0 miNorth (360°)8.1 mphMostly Cloudy
2:54 AM80.6 °F77.0 °F89 %29.59 in10.0 miNNW (340°)4.6 mphMostly Cloudy
3:09 AM78.8 °F75.2 °F89 %29.62 in10.0 miNW (310°)12.7 mph18.4 mphThunderstormThunderstorm
3:16 AM77.0 °F75.2 °F94 %29.62 in1.8 miWNW (290°)17.3 mphRain-ThunderstormHeavy Thunderstorms and Rain
3:33 AM77.0 °F75.2 °F94 %29.62 in1.8 miNorth (360°)9.2 mph16.1 mphRain-ThunderstormHeavy Thunderstorms and Rain
3:36 AM77.0 °F75.2 °F94 %29.62 in2.0 miNorth (360°)10.4 mphRainHeavy Rain
3:47 AM77.0 °F75.2 °F94 %29.62 in7.0 miNNE (20°)10.4 mph0.43 inRainLight Rain
3:54 AM77.0 °F75.9 °F96 %29.60 in9.0 miNNE (20°)8.1 mph0.43 inThunderstormThunderstorm
4:03 AM75.2 °F75.2 °F100 %29.61 in1.8 miCalm0.06 inRain-ThunderstormHeavy Thunderstorms and Rain
4:10 AM77.0 °F75.2 °F94 %29.62 in3.0 miCalm0.09 inRain-ThunderstormLight Thunderstorms and Rain
4:33 AM77.0 °F75.2 °F94 %29.62 in10.0 miCalm0.10 inThunderstormThunderstorm
4:54 AM77.0 °F75.9 °F96 %29.59 in8.0 miSE (140°)3.5 mph0.10 inScattered Clouds
5:54 AM78.1 °F77.0 °F96 %29.59 in6.0 miNNW (340°)11.5 mph21.9 mph0.00 inRainLight Rain
6:54 AM79.0 °F77.0 °F94 %29.60 in10.0 miNNW (340°)6.9 mph0.01 inScattered Clouds
7:54 AM82.0 °F78.1 °F88 %29.62 in10.0 miWNW (300°)10.4 mphMostly Cloudy
8:54 AM82.9 °F78.1 °F85 %29.64 in10.0 miNW (320°)12.7 mphScattered Clouds
9:54 AM84.0 °F78.1 °F82 %29.62 in10.0 miNNW (330°)11.5 mphScattered Clouds
10:54 AM82.9 °F79.0 °F88 %29.62 in10.0 miNW (320°)10.4 mph0.00 inMostly Cloudy
11:03 AM82.4 °F78.8 °F89 %29.64 in10.0 miNNW (330°)10.4 mphOvercast
11:21 AM84.2 °F78.8 °F84 %29.63 in10.0 miNW (320°)12.7 mphScattered Clouds
11:54 AM84.0 °F78.1 °F82 %29.60 in10.0 miWNW (300°)11.5 mphPartly Cloudy
12:54 PM86.0 °F79.0 °F79 %29.57 in10.0 miWNW (290°)11.5 mphMostly Cloudy
1:10 PM82.4 °F78.8 °F89 %29.59 in1.5 miNW (310°)12.7 mph0.01 inRainLight Rain
1:20 PM82.4 °F80.6 °F94 %29.59 in7.0 miWNW (300°)10.4 mph0.04 inOvercast
1:54 PM86.0 °F79.0 °F79 %29.55 in7.0 miNW (320°)11.5 mph0.04 inScattered Clouds
2:01 PM84.2 °F78.8 °F84 %29.57 in10.0 miNNW (330°)12.7 mphMostly Cloudy
2:30 PM86.0 °F77.0 °F74 %29.57 in10.0 miNW (310°)12.7 mphScattered Clouds
2:43 PM86.0 °F78.8 °F79 %29.57 in10.0 miNW (310°)15.0 mph21.9 mphMostly Cloudy
2:51 PM84.2 °F77.0 °F79 %29.57 in10.0 miNW (320°)12.7 mph21.9 mphMostly Cloudy
2:54 PM86.0 °F77.0 °F74 %29.55 in10.0 miNW (310°)13.8 mph19.6 mphMostly Cloudy
3:10 PM86.0 °F77.0 °F74 %29.57 in10.0 miWNW (300°)13.8 mphScattered Clouds
3:24 PM84.2 °F75.2 °F74 %29.57 in10.0 miNW (310°)15.0 mph24.2 mphMostly Cloudy
3:37 PM84.2 °F78.8 °F84 %29.56 in10.0 miWNW (290°)10.4 mphScattered Clouds
3:54 PM84.9 °F77.0 °F77 %29.54 in10.0 miNW (320°)16.1 mph20.7 mphScattered Clouds
4:54 PM82.9 °F78.1 °F85 %29.55 in10.0 miWNW (290°)15.0 mphScattered Clouds
5:54 PM80.1 °F77.0 °F90 %29.56 in6.0 miNW (320°)12.7 mph25.3 mph0.00 inRainLight Rain
6:54 PM82.0 °F78.1 °F88 %29.58 in10.0 miNW (310°)12.7 mph0.00 inPartly Cloudy
7:54 PM81.0 °F78.1 °F91 %29.59 in10.0 miNW (320°)11.5 mph0.01 inScattered Clouds
8:54 PM82.0 °F77.0 °F85 %29.61 in10.0 miNW (310°)16.1 mphPartly Cloudy
9:49 PM80.6 °F77.0 °F89 %29.64 in10.0 miNNW (330°)10.4 mphMostly Cloudy
9:54 PM81.0 °F78.1 °F91 %29.62 in10.0 miNW (310°)10.4 mphMostly Cloudy
10:04 PM80.6 °F78.8 °F94 %29.64 in10.0 miNW (310°)11.5 mphMostly Cloudy
10:14 PM82.4 °F77.0 °F84 %29.64 in10.0 miNW (320°)15.0 mphScattered Clouds
10:54 PM81.0 °F78.1 °F91 %29.60 in10.0 miNW (310°)12.7 mphClear
11:54 PM81.0 °F77.0 °F88 %29.59 in10.0 miNW (320°)9.2 mphMostly Cloudy
Hourly data recorded from PGUM, located miles away from Agana, Guam







STORIES FROM OUR PARTNERS